GW2785 Weather Reports


time (UTC)temp
C
wind
direction
speed
KPH
gust
KPH
rain 1hr
cm
rain 24hr
cm
rain mn
cm
humidity
%
barometer
mb
20260503174132 16 158 1.6 1.6 0.00 0.00 0.00 47 1014.1
20260503173627 16 161 3.2 6.4 0.00 0.00 0.00 41 1014.0
20260503173123 16 177 1.6 3.2 0.00 0.00 0.00 52 1014.3
20260503172620 16 144 6.4 9.7 0.00 0.00 0.00 45 1014.2
20260503172118 15 149 1.6 1.6 0.00 0.00 0.00 54 1014.4
20260503171614 15 145 6.4 9.7 0.00 0.00 0.00 48 1014.3
20260503171112 15 135 1.6 3.2 0.00 0.00 0.00 47 1014.5
20260503170609 15 160 1.6 1.6 0.00 0.00 0.00 50 1014.5
20260503170105 15 144 6.4 9.7 0.00 0.00 0.00 50 1014.8
20260503151000 13 149 1.6 4.8 0.00 0.00 0.00 49 1016.2
20260503150456 12 138 6.4 6.4 0.00 0.00 0.00 53 1016.0
20260503131344 8 157 1.6 3.2 0.00 0.00 0.00 78 1016.2
20260503130841 8 161 0.0 0.0 0.00 0.00 0.00 80 1016.0
20260503130339 7 162 0.0 0.0 0.00 0.00 0.00 83 1016.3
20260503110733 -1 159 0.0 0.0 0.00 0.00 0.00 99 1015.6
20260503110230 -1 159 0.0 0.0 0.00 0.00 0.00 99 1015.6
20260503100156 -1 159 0.0 0.0 0.00 0.00 0.00 99 1014.9
20260503090115 -1 160 0.0 0.0 0.00 0.00 0.00 99 1015.1
20260503081545 -1 159 0.0 0.0 0.00 0.00 0.00 99 1014.9
20260503081042 -1 159 0.0 0.0 0.00 0.00 0.00 99 1014.8
20260503080538 -1 160 0.0 0.0 0.00 0.00 0.00 99 1014.8
20260503072512 -1 159 0.0 0.0 0.00 0.00 0.00 99 1014.7
20260503072009 -1 159 0.0 0.0 0.00 0.00 0.00 99 1014.8
20260503071506 -1 161 0.0 0.0 0.00 0.00 0.00 99 1014.7
20260503071003 0 161 0.0 0.0 0.00 0.00 0.00 99 1014.8
20260503070459 0 161 0.0 0.0 0.00 0.00 0.00 99 1014.8
20260503054922 0 161 0.0 0.0 0.00 0.00 0.00 99 1015.2
20260503054418 0 162 0.0 0.0 0.00 0.00 0.00 99 1015.1
20260503053916 0 162 0.0 0.0 0.00 0.00 0.00 99 1015.2
20260503053414 0 162 0.0 0.0 0.00 0.00 0.00 99 1015.3
20260503052910 0 162 0.0 0.0 0.00 0.00 0.00 99 1015.3
20260503052408 0 161 0.0 0.0 0.00 0.00 0.00 99 1015.2
20260503051904 0 161 0.0 0.0 0.00 0.00 0.00 99 1015.3
20260503051400 0 163 0.0 0.0 0.00 0.00 0.00 99 1015.1
20260503050857 0 162 0.0 0.0 0.00 0.00 0.00 99 1015.3
20260503050353 0 161 0.0 0.0 0.00 0.00 0.00 99 1015.2
20260503045851 0 160 0.0 0.0 0.00 0.00 0.00 99 1015.2
20260503045348 0 161 0.0 0.0 0.00 0.00 0.00 99 1015.1
20260503044845 0 161 0.0 0.0 0.00 0.00 0.00 99 1015.0
20260503044342 0 161 0.0 0.0 0.00 0.00 0.00 99 1015.1
20260503043839 0 161 0.0 0.0 0.00 0.00 0.00 99 1015.1
20260503043336 0 161 0.0 0.0 0.00 0.00 0.00 99 1015.1
20260503042832 0 160 0.0 0.0 0.00 0.00 0.00 99 1015.2
20260503042329 0 160 0.0 0.0 0.00 0.00 0.00 99 1015.1
20260503041825 0 161 0.0 0.0 0.00 0.00 0.00 99 1015.0
20260503041322 0 161 0.0 0.0 0.00 0.00 0.00 99 1015.2
20260503040820 0 161 0.0 0.0 0.00 0.00 0.00 99 1015.3
20260503040317 0 161 0.0 0.0 0.00 0.00 0.00 98 1015.4
20260503035814 0 161 0.0 0.0 0.00 0.00 0.00 98 1015.3
20260503035311 0 161 0.0 0.0 0.00 0.00 0.00 98 1015.0
20260503034808 0 161 0.0 0.0 0.00 0.00 0.00 98 1015.0
20260503034305 0 161 0.0 0.0 0.00 0.00 0.00 98 1015.1
20260503033803 1 161 0.0 0.0 0.00 0.00 0.00 98 1015.1
20260503033300 1 162 0.0 0.0 0.00 0.00 0.00 98 1014.9
20260503032758 1 161 0.0 0.0 0.00 0.00 0.00 98 1015.0
20260503032257 1 161 0.0 0.0 0.00 0.00 0.00 97 1015.3
20260503031753 1 161 0.0 0.0 0.00 0.00 0.00 97 1015.2
20260503031251 1 161 0.0 0.0 0.00 0.00 0.00 97 1015.2
20260503030747 1 161 0.0 0.0 0.00 0.00 0.00 97 1015.2
20260503030244 1 161 0.0 0.0 0.00 0.00 0.00 97 1015.1
20260503025741 1 161 0.0 0.0 0.00 0.00 0.00 96 1015.3
20260503025238 1 161 0.0 0.0 0.00 0.00 0.00 95 1015.2
20260503024735 1 161 0.0 0.0 0.00 0.00 0.00 95 1015.3
20260503024232 1 162 0.0 0.0 0.00 0.00 0.00 95 1015.1
20260503023729 1 161 0.0 0.0 0.00 0.00 0.00 94 1015.2
20260503023226 1 161 0.0 0.0 0.00 0.00 0.00 94 1015.2
20260503022723 1 161 0.0 0.0 0.00 0.00 0.00 94 1015.4
20260503022222 1 161 0.0 0.0 0.00 0.00 0.00 93 1015.2
20260503021720 1 161 0.0 0.0 0.00 0.00 0.00 91 1015.0
20260503021215 2 161 0.0 0.0 0.00 0.00 0.00 90 1015.0
20260503020713 2 162 0.0 0.0 0.00 0.00 0.00 89 1015.0
20260503020211 2 162 0.0 0.0 0.00 0.00 0.00 88 1015.1
20260503015707 2 161 0.0 0.0 0.00 0.00 0.00 86 1015.1
20260503015204 2 162 0.0 0.0 0.00 0.00 0.00 87 1015.0
20260503014700 3 161 0.0 0.0 0.00 0.00 0.00 88 1014.8
20260503014158 3 160 0.0 0.0 0.00 0.00 0.00 87 1014.8
20260503013655 3 162 0.0 0.0 0.00 0.00 0.00 87 1014.8
20260503013153 3 161 0.0 0.0 0.00 0.00 0.00 83 1014.8
20260503012650 3 163 0.0 0.0 0.00 0.00 0.00 83 1014.7
20260503012147 4 161 0.0 0.0 0.00 0.00 0.00 78 1014.7
20260503011643 5 161 0.0 0.0 0.00 0.00 0.00 78 1014.5
20260503011140 5 162 0.0 0.0 0.00 0.00 0.00 73 1014.6
20260503010636 5 162 0.0 0.0 0.00 0.00 0.00 74 1014.4
20260503010134 5 163 0.0 0.0 0.00 0.00 0.00 78 1014.5
20260503005631 6 161 0.0 0.0 0.00 0.00 0.00 75 1014.6
20260503005128 6 163 0.0 0.0 0.00 0.00 0.00 71 1014.3
20260503004624 6 159 0.0 0.0 0.00 0.00 0.00 70 1014.3
20260503004123 7 159 1.6 1.6 0.00 0.00 0.00 63 1014.4
20260503003619 7 158 0.0 0.0 0.00 0.00 0.00 63 1014.4
20260503003116 7 153 3.2 4.8 0.00 0.00 0.00 60 1014.4
20260503002613 8 151 3.2 3.2 0.00 0.00 0.00 59 1014.4
20260503002110 8 164 0.0 3.2 0.00 0.00 0.00 57 1014.5
20260503001606 8 168 3.2 4.8 0.00 0.00 0.00 58 1014.3
20260503001103 8 160 6.4 9.7 0.00 0.00 0.00 56 1014.0
20260503000600 8 144 3.2 4.8 0.00 0.00 0.00 56 1014.0
20260503000057 9 140 6.4 6.4 0.00 0.00 0.00 55 1014.2
20260502235554 8 126 4.8 6.4 0.00 0.00 0.00 55 1014.1
20260502235052 9 145 3.2 4.8 0.00 0.00 0.00 56 1014.2
20260502234548 10 145 4.8 6.4 0.00 0.00 0.00 54 1013.9
20260502234046 10 148 4.8 6.4 0.00 0.00 0.00 52 1014.0
20260502233545 9 154 1.6 3.2 0.00 0.00 0.00 54 1014.0
20260502233043 9 127 4.8 4.8 0.00 0.00 0.00 54 1013.8
20260502232539 9 141 1.6 3.2 0.00 0.00 0.00 54 1014.1
20260502232037 9 162 0.0 0.0 0.00 0.00 0.00 55 1013.9
20260502231533 9 149 1.6 3.2 0.00 0.00 0.00 54 1014.0
20260502231031 9 153 6.4 9.7 0.00 0.00 0.00 53 1013.8
20260502230530 9 151 4.8 6.4 0.00 0.00 0.00 56 1013.9
20260502230028 9 158 1.6 3.2 0.00 0.00 0.00 54 1014.0
20260502225523 9 167 3.2 4.8 0.00 0.00 0.00 52 1013.6
20260502225020 9 169 4.8 4.8 0.00 0.00 0.00 53 1013.6
20260502224516 10 167 3.2 4.8 0.00 0.00 0.00 52 1013.7
20260502224014 10 186 3.2 4.8 0.00 0.00 0.00 52 1013.6
20260502223511 10 156 4.8 6.4 0.00 0.00 0.00 50 1013.6
20260502223009 11 167 4.8 6.4 0.00 0.00 0.00 47 1013.5
20260502222506 10 169 3.2 6.4 0.00 0.00 0.00 54 1013.6
20260502222003 10 136 6.4 9.7 0.00 0.00 0.00 51 1013.5
20260502221458 10 117 6.4 11.3 0.00 0.00 0.00 52 1013.6
20260502220956 10 166 3.2 4.8 0.00 0.00 0.00 52 1013.4
20260502220451 10 169 1.6 1.6 0.00 0.00 0.00 49 1013.3
20260502215948 10 155 6.4 6.4 0.00 0.00 0.00 55 1013.5
20260502215445 10 157 6.4 9.7 0.00 0.00 0.00 52 1013.2
20260502214942 10 152 3.2 4.8 0.00 0.00 0.00 53 1013.3
20260502214439 10 123 6.4 9.7 0.00 0.00 0.00 51 1013.5
20260502213936 11 131 8.0 11.3 0.00 0.00 0.00 52 1013.4
20260502213433 10 160 8.0 12.9 0.00 0.00 0.00 49 1013.5
20260502212932 11 154 3.2 3.2 0.00 0.00 0.00 49 1013.4
20260502212430 10 143 4.8 6.4 0.00 0.00 0.00 51 1013.4
20260502211927 10 144 6.4 9.7 0.00 0.00 0.00 50 1013.4
20260502211423 10 78 8.0 11.3 0.00 0.00 0.00 52 1013.3
20260502210920 10 157 3.2 4.8 0.00 0.00 0.00 50 1013.1
20260502210417 11 151 1.6 3.2 0.00 0.00 0.00 49 1013.3
20260502205914 11 162 1.6 4.8 0.00 0.00 0.00 52 1013.4
20260502205410 10 125 4.8 4.8 0.00 0.00 0.00 52 1013.3
20260502204908 11 115 8.0 9.7 0.00 0.00 0.00 51 1013.2
20260502204404 12 115 12.9 14.5 0.00 0.00 0.00 47 1013.1
20260502203902 11 128 12.9 16.1 0.00 0.00 0.00 50 1013.1
20260502203359 11 128 6.4 9.7 0.00 0.00 0.00 47 1013.1
20260502202855 10 135 6.4 6.4 0.00 0.00 0.00 49 1013.2
20260502202352 11 116 11.3 12.9 0.00 0.00 0.00 46 1013.3
20260502201850 11 125 4.8 6.4 0.00 0.00 0.00 50 1013.6
20260502201346 10 157 6.4 6.4 0.00 0.00 0.00 52 1013.5
20260502200843 10 163 6.4 6.4 0.00 0.00 0.00 51 1013.4
20260502200338 11 138 9.7 12.9 0.00 0.00 0.00 49 1013.5
20260502195837 11 220 3.2 4.8 0.00 0.00 0.00 52 1013.7
20260502195333 11 126 9.7 12.9 0.00 0.00 0.00 47 1013.5
20260502194830 11 149 4.8 9.7 0.00 0.00 0.00 53 1013.6
20260502194327 11 116 12.9 14.5 0.00 0.00 0.00 47 1013.6
20260502193822 11 108 16.1 20.9 0.00 0.00 0.00 50 1013.7
20260502193320 11 111 6.4 11.3 0.00 0.00 0.00 49 1013.6
20260502192815 11 101 9.7 14.5 0.00 0.00 0.00 52 1013.6
20260502192313 11 151 9.7 12.9 0.00 0.00 0.00 50 1013.7
20260502191810 11 146 6.4 9.7 0.00 0.00 0.00 49 1013.7
20260502191307 11 140 3.2 9.7 0.00 0.00 0.00 52 1013.8
20260502190804 10 108 8.0 12.9 0.00 0.00 0.00 51 1013.7
20260502190302 11 167 0.0 0.0 0.00 0.00 0.00 50 1014.0
20260502185757 10 161 6.4 6.4 0.00 0.00 0.00 50 1014.0
20260502185253 10 159 3.2 3.2 0.00 0.00 0.00 50 1014.1
20260502184750 11 167 8.0 12.9 0.00 0.00 0.00 58 1013.9
20260502184245 10 152 6.4 11.3 0.00 0.00 0.00 52 1014.1
20260502183743 10 150 3.2 4.8 0.00 0.00 0.00 54 1014.1
20260502183238 10 143 12.9 14.5 0.00 0.00 0.00 52 1014.1
20260502182734 10 116 6.4 9.7 0.00 0.00 0.00 56 1014.2
20260502182230 10 155 4.8 6.4 0.00 0.00 0.00 58 1014.0
20260502181726 10 142 4.8 6.4 0.00 0.00 0.00 55 1014.1
20260502181226 10 134 11.3 14.5 0.00 0.00 0.00 51 1014.1
20260502180722 10 163 4.8 6.4 0.00 0.00 0.00 51 1014.0
20260502180220 10 139 9.7 14.5 0.00 0.00 0.00 48 1014.1